カタログに戻る

FENGYUN 1C DEB

LostSSO
NORAD 37041·DEBRIS·🇨🇳 China

打ち上げ May 10, 1999 から Taiyuan Satellite Launch Center

Loading…

次のパス (今後24時間)

TLE

古いSource: Space-Track

元期: Jun 22, 2022, 10:52 UTC

1 37041U 99025EDZ 22173.45295771  .00001814  00000-0  11929-2 0  9993
2 37041  98.9173  48.8319 0160017 247.7926 110.6194 13.97117019748694

AllMySatでFENGYUN 1C DEBをリアルタイム追跡

Download on the App Store